Flag for Luxembourg Weather past 2 weeks in Luxembourg, Luxembourg

Now
57 °F

Broken clouds.


Feels Like: 55 °F
Forecast: 53 / 64 °F
Wind: 9 mph from Southwest

Location: Luxembourg Airport

Current Time: Apr 25, 2015 at 5:10:56 PM

Latest Report: Apr 25, 2015 at 4:20 PM


Visibility: N/A

Pressure: 29.80 "Hg

Humidity: 77%

Dew point: 50 °F

Location of LuxembourgLocation

Historic Weather in Luxembourg — Graph

°F

Luxembourg temperature yesterday

Maximum temperature yesterday: 68 °F (at 3:20 PM)
Minimum temperature yesterday: 46 °F (at 4:20 AM)
Average temperature yesterday: 58 °F

Past Weeks' High & Low Weather Summary

 TemperatureHumidityPressure
High75 °F (Apr 15, 5:20 PM)100% (Apr 12, 1:20 AM)30.45 "Hg (Apr 12, 1:20 AM)
Low37 °F (Apr 23, 6:20 AM)22% (Apr 21, 5:20 PM)29.80 "Hg (Apr 25, 5:50 AM)
Average55 °F57%30.16 "Hg
* Reported Apr 10 3:20 PM — Apr 25 3:50 PM, Luxembourg, Weather by CustomWeather, © 2015

Note: Actual official high and low records may vary slightly from our data, if they occured in-between our weather recording intervals... More about our weather records

Advertising

Luxembourg weather history for previous 24 hours

 ConditionsComfort  
Time TempWeatherWind HumidityBarometerVisibility
3:50 PM
Sat, Apr 25
57 °FScattered clouds.9 mph82%29.80 "HgN/A
3:20 PM55 °FSprinkles. Partly sunny.7 mph94%29.80 "HgN/A
2:50 PM57 °FSprinkles. Broken clouds.10 mph82%29.83 "HgN/A
2:20 PM57 °FSprinkles. Broken clouds.12 mph77%29.83 "HgN/A
1:50 PM57 °FBroken clouds.9 mph82%29.83 "HgN/A
1:20 PM55 °FLight rain. Broken clouds.9 mph88%29.83 "HgN/A
12:50 PM55 °FBroken clouds.9 mph88%29.83 "HgN/A
12:20 PM55 °FPartly sunny.7 mph88%29.83 "HgN/A
11:50 AM55 °FPartly sunny.8 mph88%29.83 "HgN/A
11:20 AM54 °FBroken clouds.6 mph94%29.83 "Hg5 mi
10:50 AM52 °FLight rain. Fog.5 mph100%29.83 "Hg1 mi
10:20 AM52 °FLight rain. Fog.2 mph100%29.83 "Hg1 mi
9:50 AM50 °FLight rain. Fog.2 mph100%29.83 "Hg2 mi
9:20 AM50 °FLight rain. Fog.3 mph100%29.83 "Hg2 mi
8:50 AM52 °FLight rain. Broken clouds.2 mph94%29.83 "Hg4 mi
8:20 AM52 °FLight rain. Partly sunny.5 mph94%29.83 "Hg4 mi
7:50 AM52 °FLight rain. Partly sunny.5 mph88%29.83 "Hg4 mi
7:20 AM52 °FLight rain. Passing clouds.5 mph88%29.83 "Hg4 mi
6:50 AM52 °FLight rain. Passing clouds.2 mph88%29.83 "HgN/A
6:20 AM52 °FPassing clouds.1 mph82%29.80 "HgN/A
5:50 AM54 °FPassing clouds.No wind77%29.80 "HgN/A
5:20 AM54 °FPassing clouds.1 mph72%29.83 "HgN/A
4:50 AM54 °FPassing clouds.3 mph67%29.83 "HgN/A
4:20 AM54 °FCool.6 mph67%29.83 "HgN/A
3:50 AM55 °FCool.1 mph63%29.83 "HgN/A
3:20 AM55 °FCool.1 mph63%29.83 "HgN/A
2:50 AM55 °FCool.1 mph63%29.83 "HgN/A
2:20 AM55 °FCool.3 mph63%29.83 "HgN/A
1:50 AM54 °FClear.3 mph72%29.86 "Hg10 mi
1:20 AM54 °FCool.2 mph72%29.86 "HgN/A
12:50 AM55 °FCool.2 mph67%29.86 "HgN/A
12:20 AM54 °FClear.2 mph72%29.86 "Hg10 mi
11:50 PM
Fri, Apr 24
55 °FPassing clouds.5 mph63%29.86 "HgN/A
10:50 PM59 °FClear.5 mph55%29.89 "Hg10 mi
10:20 PM59 °FClear.5 mph55%29.89 "Hg10 mi
9:50 PM61 °FClear.5 mph52%29.89 "Hg10 mi
9:20 PM61 °FSunny.5 mph52%29.89 "Hg10 mi
8:50 PM63 °FSunny.6 mph49%29.89 "Hg10 mi
8:20 PM64 °FSunny.5 mph43%29.89 "Hg10 mi
7:50 PM66 °FSunny.8 mph40%29.89 "Hg10 mi
7:20 PM66 °FPassing clouds.7 mph37%29.89 "HgN/A
6:50 PM68 °FPassing clouds.6 mph33%29.89 "HgN/A
6:20 PM68 °FPassing clouds.9 mph35%29.89 "HgN/A
5:50 PM68 °FPassing clouds.7 mph30%29.89 "HgN/A
5:20 PM68 °FPassing clouds.6 mph33%29.89 "HgN/A
Weather by CustomWeather, © 2015

See weather overviewHow to use our weather pages